Location: Newark
(13.8117°N, 3.6025°W)
Time: 16:02:55
(UTC+00:00)

Courier 1B - Pass Details

Date: 25 August 2019
Orbit: 962 x 1209 km, 28.3° (Epoch: 21 September)

Event Time Altitude Azimuth Distance (km) Brightness Sun altitude
Rises 20:15:31 0° 303° (WNW) 3,706 11.8 -25.4°
Reaches altitude 10° 20:18:37 10° 315° (NW) 2,728 10.7 -26.2°
Maximum altitude 20:24:12 29° 13° (NNE) 1,691 8.8 -27.4°
Enters shadow 20:25:25 27° 32° (NNE) 1,750 8.7 -27.7°
